Location: Dana Point
(33.4670°N, 117.6981°W)
Time: 04:13:04
(UTC+00:00)

Daily predictions for brighter satellites

Satellite Brightness Start Highest point End
(mag) Time Altitude Azimuth Time Altitude Azimuth Time Altitude Azimuth
Milstar 3 Cent rocket 3.8 02:00:23 10° SW 02:08:34 32° SSE 02:13:33 10° ESE
Cosmos 2112 Rocket 4.1 02:04:59 10° N 02:10:07 58° ENE 02:15:16 10° SSE
Longmarch 3A Rocket 2.7 02:09:14 10° SSW 02:10:18 14° SSE 02:11:44 10° ESE
Cosmos 1900 4.4 02:05:37 10° NNW 02:10:48 79° ENE 02:15:55 10° SSE
Cosmos 1943 3.7 02:07:25 10° N 02:12:45 41° ENE 02:18:03 10° SE
Cosmos 1680 Rocket 3.5 02:07:59 10° NNW 02:13:13 75° ENE 02:18:27 10° SSE
USA 234 4.4 02:10:11 10° ENE 02:15:06 22° ESE 02:19:59 10° S
Iridium 4 Rocket 3.4 02:11:28 10° S 02:16:15 74° E 02:21:32 10° N
Cosmos 158 Rocket 4.0 02:11:04 10° NNW 02:16:18 90° W 02:21:21 10° SSE
Helios 1A Rocket 2.9 02:12:14 10° SSE 02:16:19 87° E 02:20:27 10° NNW
Cosmos 1975 Rocket 3.7 02:14:10 10° NNE 02:18:06 34° E 02:22:00 10° SE
Meteor 2-11 Rocket 4.5 02:12:32 10° S 02:18:40 82° E 02:24:50 10° N
COSMO-SKYMED 1 4.1 02:19:41 10° N 02:23:47 42° WNW 02:27:52 10° SW
CSL-04 Rocket 4.2 02:19:06 10° SE 02:24:00 38° ENE 02:29:01 10° N
HJ-1C 4.4 02:27:19 10° SE 02:30:04 25° ENE 02:32:50 10° NNE
H-2A R/B 2.2 02:30:49 10° SW 02:32:14 21° SSE 02:33:47 13° ESE
Cosmos 1603 3.6 02:29:08 10° NNW 02:34:48 78° ENE 02:40:23 10° SSE
SJ 16-02 4.5 02:32:48 10° W 02:35:13 14° WNW 02:37:39 10° NNW
Sich 1 Rocket 3.5 02:32:24 10° S 02:36:50 69° E 02:41:20 10° NNE
Cosmos 1975 4.2 02:33:22 10° SSW 02:37:16 44° W 02:41:12 10° N
H-2A R/B 2.4 02:33:19 10° SE 02:37:52 40° ENE 02:42:33 10° N
Okean 2 3.6 02:37:14 10° N 02:41:24 74° W 02:45:31 10° S
Meteor 1-21 4.1 02:36:19 10° N 02:41:55 76° E 02:47:30 10° SSE
Cosmos 1072 Rocket 4.5 02:37:11 10° S 02:43:15 61° E 02:49:28 10° NNE
Meteor 1-12 Rocket 4.3 02:39:16 10° S 02:45:05 60° E 02:50:49 10° NNE
Cosmos 1842 3.6 02:41:31 10° NNW 02:45:22 69° W 02:49:12 10° S
ATLAS 2AS CENTAUR R/B 3.8 02:40:25 10° SSE 02:46:41 27° ESE 02:53:03 10° NE
CZ-4 R/B 2.0 02:43:31 10° S 02:47:41 63° W 02:51:52 10° NNW
Cosmos 2034 Rocket 4.3 02:44:06 10° SSE 02:50:03 43° E 02:55:59 10° NNE
BREEZE-M DEB (TANK) 4.5 02:47:06 10° NNW 02:50:13 25° NE 02:54:11 17° E
Okean 2 Rocket 3.0 02:48:42 10° S 02:53:08 65° E 02:57:35 10° NNE
Cosmos 1707 2.9 02:51:41 10° N 02:55:24 47° E 02:58:23 15° SSE
Cosmos 1300 Rocket 3.5 02:51:10 10° S 02:55:30 67° E 02:59:54 10° NNE
CENTAUR R/B 4.4 02:51:21 10° N 02:57:35 23° NE 03:01:27 17° ENE
GOES 2 Rocket 3.7 02:54:27 10° WSW 02:58:17 36° S 03:00:00 25° SE
Ariane Rocket 3.9 02:56:56 23° E 02:58:35 27° ENE 03:02:49 10° NNE
Okean-O 4.3 02:59:37 10° SSW 03:03:39 35° W 03:07:44 10° NNW
YAOGAN 1 3.6 03:00:31 10° S 03:04:41 48° W 03:08:52 10° NNW
DELTA 2 R/B (1) 3.5 03:01:23 10° WNW 03:06:57 85° SSW 03:09:53 29° ESE
SJ-6B 4.4 03:08:51 18° NE 03:08:51 18° NE 03:10:28 10° NNE
ARGOS 3.1 03:02:46 10° SSE 03:08:01 62° ENE 03:13:19 10° N
SL-08 RB Rocket 4.0 03:09:03 30° ESE 03:10:44 43° ENE 03:15:04 10° N
ATLAS 5 CENTAUR R/B 3.3 03:07:23 10° NNW 03:11:24 89° NE 03:26:49 10° SSE
In-Cosmos 22 4.1 03:06:55 10° N 03:12:08 56° E 03:15:58 19° SSE
USA 186 3.4 03:14:50 22° NNE 03:14:50 22° NNE 03:16:18 10° N
CZ-2C R/B 3.6 03:10:29 10° S 03:15:32 60° W 03:20:56 10° NNW
Cosmos 2298 Rocket 4.3 03:11:31 10° SSW 03:16:49 70° WNW 03:22:08 10° NNE
CZ-2C R/B 2.7 03:13:03 10° NNE 03:18:35 61° E 03:24:07 10° S
Cosmos 1536 Rocket 3.7 03:17:59 10° N 03:22:20 51° E 03:22:45 49° ESE
MOS 1 Rocket 4.1 03:19:31 10° N 03:23:42 46° WNW 03:27:47 10° SSW
Cosmos 1025 Rocket 2.9 03:22:33 10° N 03:26:58 83° E 03:28:46 35° S
Cosmos 2285 Rocket 3.8 03:25:14 10° S 03:31:29 75° ESE 03:37:48 10° NNE
Cosmos 1844 3.7 03:26:30 10° SSW 03:32:14 82° WNW 03:37:56 10° NNE
Cosmos 2151 Rocket 4.2 03:30:35 10° SSW 03:34:55 57° W 03:39:20 10° N
Cosmos 1844 Rocket 3.2 03:31:10 10° SW 03:36:37 57° WNW 03:42:07 10° NNE
Cosmos 1867 3.7 03:35:01 10° NNW 03:40:28 72° WSW 03:42:28 39° S
NOSS 3-2 (A) 4.2 03:33:35 10° NNW 03:41:17 58° ENE 03:43:55 43° ESE
CZ-2C R/B 1.8 03:38:47 10° WNW 03:41:25 46° WNW 03:41:25 46° WNW
MetOp-A 4.0 03:49:02 70° E 03:49:08 70° ENE 03:54:28 10° N
Cosmos 1125 Rocket 4.1 03:44:40 10° SSW 03:49:51 57° WNW 03:55:05 10° N
Cosmos 1092 Rocket 4.0 03:43:49 10° N 03:49:45 56° ENE 03:49:45 56° ENE
MOS 1 4.1 03:53:26 64° SSE 03:54:22 85° ENE 04:00:05 10° NNW
USA 234 3.3 03:52:10 12° NE 03:58:24 78° NW 04:04:56 10° SW
Resurs 01 Rocket 4.2 04:14:24 13° N 04:14:24 13° N 04:14:53 10° N
NOSS 3-4 (A) 3.6 04:08:51 10° SW 04:14:39 66° WNW 04:18:10 26° NNE
NOSS 3-4 (C) 3.5 04:08:58 10° SW 04:14:45 67° WNW 04:17:40 31° NNE
NOSS 3-2 (C) 4.1 04:09:16 10° NNW 04:17:04 62° ENE 04:17:17 62° ENE
H-2A R/B 4.5 04:14:10 10° SW 04:17:26 18° W 04:20:45 10° NW
ATLAS 2A CENTAUR R/B 4.4 03:28:12 10° W 04:28:25 63° SSW 04:32:29 50° SSE
ATLAS 2AS CENTAUR R/B 3.4 04:29:25 10° SW 04:37:11 60° WNW 04:45:01 10° NNE
Milstar 3 Cent rocket 4.1 04:40:54 10° WSW 04:43:05 21° WSW 04:43:05 21° WSW
CENTAUR R/B 3.2 04:40:52 10° NNW 04:48:39 78° NNW 04:48:39 78° NNW
ATLAS 3B R/B 4.3 04:51:14 10° NNW 04:54:32 25° N 04:54:32 25° N
Cosmos 1980 Rocket 4.0 10:34:34 25° NNE 10:34:34 25° NNE 10:36:51 10° NNE
Cosmos 2322 Rocket 4.3 10:37:25 18° ESE 10:38:32 19° E 10:42:28 10° NE
SL-16 R/B 3.7 10:47:26 30° ESE 10:47:42 30° ESE 10:52:34 10° NE
Cosmos 1934 Rocket 4.3 10:51:45 10° N 10:57:12 60° NE 10:57:12 60° NE
CZ-2C R/B 4.4 10:57:22 10° NE 11:01:41 26° E 11:04:21 18° SE
IDEFIX/ARIANE 42P 3.9 10:58:03 10° N 11:00:51 32° N 11:00:51 32° N
SJ 16-02 3.7 11:03:59 10° NNE 11:07:27 22° ENE 11:10:55 10° ESE
H-2A R/B 4.0 11:07:36 10° SE 11:11:20 29° ENE 11:15:10 10° N
Meteor 2-6 Rocket 4.3 11:14:54 72° E 11:14:55 72° E 11:20:40 10° NNE
Cosmos 1238 Rocket 3.8 11:11:03 10° N 11:17:33 85° E 11:17:49 81° SE
Lacrosse 5 4.3 11:24:36 11° NNW 11:24:36 11° NNW 11:25:30 10° N
Cosmos 1605 Rocket 4.3 11:18:51 10° N 11:25:14 68° E 11:31:35 10° SSE
Cosmos 1535 Rocket 4.4 11:20:19 10° N 11:26:42 77° W 11:27:41 64° SSW
Skynet4D Del rocket 4.3 11:27:38 40° SSE 11:27:38 40° SSE 11:32:19 10° ESE
PAYLOAD A 4.3 11:25:04 10° NNE 11:29:41 57° E 11:30:36 48° SE
Cosmos 468 Rocket 4.0 11:30:16 74° SSE 11:30:38 80° ESE 11:35:56 10° NNE
